Weather reports worldwide

Advertisment
Bournemouth Airport, United Kingdom (3862): temperature & dewpoint: 12.07.2018 09:00:00 - 18.07.2018 09:00:00 (BST)Bournemouth Airport, United Kingdom (3862): temperature -20cm & temperature -100cm: 12.07.2018 09:00:00 - 18.07.2018 09:00:00 (BST)Bournemouth Airport, United Kingdom (3862): wind speed: 12.07.2018 09:00:00 - 18.07.2018 09:00:00 (BST)Bournemouth Airport, United Kingdom (3862): wind direction: 12.07.2018 09:00:00 - 18.07.2018 09:00:00 (BST)Bournemouth Airport, United Kingdom (3862): reduced air pressure: 12.07.2018 09:00:00 - 18.07.2018 09:00:00 (BST)Bournemouth Airport, United Kingdom (3862): visibility: 12.07.2018 09:00:00 - 18.07.2018 09:00:00 (BST)Bournemouth Airport, United Kingdom (3862): sunshine duration: 12.07.2018 09:00:00 - 18.07.2018 09:00:00 (BST)Bournemouth Airport, United Kingdom (3862): precipitation: 12.07.2018 09:00:00 - 18.07.2018 09:00:00 (BST)
Date & Time tt [°C] td [°C] tt -20cm [°C] tt -100cm [°C] ff [km/h] ff [kn] dd ppp [hPa] vv [km] sd [min] rr [mm]
18.07.2018 09:00:00 18,9 14,3 - - 8 4 SSW 1018,9 10 54 0,0
18.07.2018 08:00:00 14,2 14,0 - - 4 2 NNE 1018,8 10 24 0,0
18.07.2018 07:00:00 11,9 11,7 - - 2 1 - 1018,4 1,0 0 0,0
18.07.2018 06:00:00 9,8 9,4 - - 4 2 N 1018,2 0,2 0 0,0
18.07.2018 05:00:00 9,8 8,8 - - 4 2 NE 1018,0 12 0 0,0
18.07.2018 04:00:00 10,5 9,6 - - 5 3 ENE 1017,9 16 0 0,0
18.07.2018 03:00:00 11,5 10,5 - - 5 3 NE 1018,1 18 0 0,0
18.07.2018 02:00:00 12,9 11,6 - - 0 0 N 1018,1 19 0 0,0
18.07.2018 01:00:00 13,9 12,6 - - 8 4 N 1018,1 12 - 0,0
18.07.2018 00:00:00 15,6 13,8 - - 8 4 WSW 1018,1 14 0 0,0
17.07.2018 23:00:00 15,9 13,9 - - 11 6 WSW 1018,1 10 0 0,0
17.07.2018 22:00:00 16,4 13,1 - - 15 8 WSW 1017,9 10 0 0,0
17.07.2018 21:00:00 17,3 12,9 - - 13 7 WSW 1017,6 10 0 0,0
17.07.2018 20:00:00 18,6 12,0 - - 16 9 WSW 1017,4 10 54 0,0
17.07.2018 19:00:00 19,9 12,2 - - 21 11 WSW 1017,2 10 54 0,0
17.07.2018 18:00:00 21,0 12,3 - - 18 10 WSW 1017,2 10 30 0,0
17.07.2018 17:00:00 22,0 11,2 - - 24 13 WSW 1017,0 10 54 0,0
17.07.2018 16:00:00 22,0 11,4 - - 26 14 SW 1017,1 10 18 0,0
17.07.2018 15:00:00 21,5 11,3 - - 21 11 SW 1017,1 10 0 0,0
17.07.2018 14:00:00 21,5 11,0 - - 22 12 WSW 1017,0 10 18 0,0
17.07.2018 13:00:00 20,9 11,4 - - 22 12 SW 1017,1 10 6 0,0
17.07.2018 12:00:00 21,5 10,7 - - 21 11 W 1017,1 10 6 0,0
17.07.2018 11:00:00 21,2 11,8 - - 15 8 W 1016,9 10 18 0,0
17.07.2018 10:00:00 19,5 11,0 22,2 18,4 15 8 W 1017,0 10 36 0,0
17.07.2018 09:00:00 18,6 12,4 - - 11 6 WSW 1016,9 10 0 0,0
17.07.2018 08:00:00 17,1 12,4 - - 15 8 W 1016,7 10 24 0,0
17.07.2018 07:00:00 15,5 13,2 - - 9 5 W 1016,5 10 30 0,0
17.07.2018 06:00:00 11,2 9,3 - - 4 2 W 1016,2 10 6 0,0
17.07.2018 05:00:00 11,3 10,0 - - 2 1 WNW 1015,9 13 0 0,0
17.07.2018 04:00:00 11,4 9,8 - - 8 4 W 1015,8 14 0 0,0
17.07.2018 03:00:00 11,9 9,8 - - 8 4 W 1015,8 14 0 0,0
17.07.2018 02:00:00 12,0 9,2 - - 11 6 W 1015,8 16 0 0,0
17.07.2018 01:00:00 12,2 8,3 - - 11 6 W 1015,9 16 - 0,0
17.07.2018 00:00:00 14,9 9,5 - - 11 6 WNW 1015,9 10 0 0,0
16.07.2018 23:00:00 16,1 10,5 - - 16 9 NW 1015,7 17 0 0,0
16.07.2018 22:00:00 17,9 11,9 - - 15 8 NW 1015,0 10 0 0,0
16.07.2018 21:00:00 19,8 15,1 - - 15 8 NW 1014,0 10 36 0,0
16.07.2018 20:00:00 22,3 15,8 - - 15 8 WNW 1013,4 10 18 0,0
16.07.2018 19:00:00 22,9 15,4 - - 18 10 WSW 1013,2 10 54 0,0
16.07.2018 18:00:00 24,2 14,2 - - 21 11 WSW 1013,1 10 60 0,0
16.07.2018 17:00:00 25,0 13,4 - - 21 11 SW 1013,3 10 60 0,0
16.07.2018 16:00:00 24,9 11,9 - - 18 10 SW 1013,5 10 60 0,0
16.07.2018 15:00:00 26,3 10,7 - - 21 11 WSW 1013,8 10 42 0,0
16.07.2018 14:00:00 24,6 10,6 - - 16 9 SW 1014,0 10 0 0,0
16.07.2018 13:00:00 23,6 12,3 - - 11 6 SW 1014,3 10 0 0,0
16.07.2018 12:00:00 22,8 12,0 - - 16 9 SSW 1014,3 10 18 0,0
16.07.2018 11:00:00 25,2 12,6 - - 15 8 S 1014,2 10 54 0,0
16.07.2018 10:00:00 23,5 12,1 22,2 18,4 8 4 - 1014,2 10 54 0,0
16.07.2018 09:00:00 21,1 11,8 - - 2 1 - 1014,3 10 54 0,0
16.07.2018 08:00:00 18,2 12,1 - - 2 1 - 1014,4 10 60 0,0
16.07.2018 07:00:00 14,4 11,5 - - 2 1 NNE 1014,5 10 60 0,0
16.07.2018 06:00:00 11,0 9,7 - - 4 2 N 1014,7 10 6 0,0
16.07.2018 05:00:00 11,1 9,3 - - 4 2 N 1014,9 12 0 0,0
16.07.2018 04:00:00 12,4 10,3 - - 2 1 NW 1014,8 16 0 0,0
16.07.2018 03:00:00 12,7 9,9 - - 4 2 N 1014,9 18 0 0,0
16.07.2018 02:00:00 14,2 10,8 - - 2 1 NW 1015,1 16 0 0,0
16.07.2018 01:00:00 15,3 11,3 - - 2 1 W 1015,5 15 - 0,0
16.07.2018 00:00:00 15,9 11,0 - - 8 4 WNW 1015,6 16 0 0,0
15.07.2018 23:00:00 16,4 11,1 - - 11 6 W 1015,6 10 0 0,0
15.07.2018 22:00:00 18,8 11,2 - - 15 8 W 1015,4 10 0 0,0
15.07.2018 21:00:00 21,7 11,7 - - 15 8 W 1014,9 10 60 0,0
15.07.2018 20:00:00 24,1 11,8 - - 16 9 W 1014,6 10 60 0,0
15.07.2018 19:00:00 25,2 10,8 - - 18 10 WSW 1014,4 10 60 0,0
15.07.2018 18:00:00 26,3 10,7 - - 18 10 SW 1014,7 10 60 0,0
15.07.2018 17:00:00 26,8 11,8 - - 16 9 SW 1015,0 10 60 0,0
15.07.2018 16:00:00 27,2 12,6 - - 16 9 SW 1015,3 10 60 0,0
15.07.2018 15:00:00 26,2 12,2 - - 21 11 SW 1015,6 10 60 0,0
15.07.2018 14:00:00 26,4 12,9 - - 21 11 S 1015,9 10 60 0,0
15.07.2018 13:00:00 24,8 12,3 - - 16 9 S 1016,4 10 60 0,0
15.07.2018 12:00:00 25,1 12,7 - - 9 5 WSW 1016,8 10 60 0,0
15.07.2018 11:00:00 24,1 11,6 - - 9 5 WSW 1017,1 10 60 0,0
15.07.2018 10:00:00 22,8 13,2 22,2 18,2 8 4 - 1017,3 10 60 0,0
15.07.2018 09:00:00 20,3 14,6 - - 5 3 - 1017,7 10 60 0,0
15.07.2018 08:00:00 17,3 14,2 - - 0 0 N 1017,9 10 60 0,0
15.07.2018 07:00:00 13,4 12,4 - - 4 2 - 1017,8 10 60 0,0
15.07.2018 06:00:00 10,4 9,1 - - 4 2 N 1017,7 10 6 0,0
15.07.2018 05:00:00 10,5 9,6 - - 2 1 NNE 1017,8 8 0 0,0
15.07.2018 04:00:00 11,6 10,0 - - 4 2 N 1018,0 12 0 0,0
15.07.2018 03:00:00 12,3 10,5 - - 2 1 NNW 1018,2 16 0 0,0
15.07.2018 02:00:00 13,5 11,6 - - 4 2 WNW 1018,4 15 0 0,0
15.07.2018 01:00:00 14,1 11,3 - - 2 1 WNW 1018,5 17 - 0,0
15.07.2018 00:00:00 14,6 11,9 - - 8 4 WNW 1018,7 10 0 0,0
14.07.2018 23:00:00 15,6 11,9 - - 8 4 WNW 1018,7 10 0 0,0
14.07.2018 22:00:00 16,9 12,1 - - 8 4 W 1018,7 10 0 0,0
14.07.2018 21:00:00 19,0 11,8 - - 8 4 W 1018,5 10 48 0,0
14.07.2018 20:00:00 22,0 12,0 - - 11 6 WSW 1018,6 10 60 0,0
14.07.2018 19:00:00 22,4 12,7 - - 13 7 S 1018,8 10 60 0,0
14.07.2018 18:00:00 23,0 11,5 - - 16 9 S 1019,1 10 60 0,0
14.07.2018 17:00:00 23,3 11,3 - - 16 9 S 1019,3 10 60 0,0
14.07.2018 16:00:00 24,0 11,4 - - 16 9 SSW 1019,7 10 60 0,0
14.07.2018 15:00:00 23,9 12,5 - - 16 9 S 1020,0 10 60 0,0
14.07.2018 14:00:00 22,9 12,8 - - 13 7 S 1020,5 10 60 0,0
14.07.2018 13:00:00 22,3 12,6 - - 15 8 S 1020,8 10 60 0,0
14.07.2018 12:00:00 21,9 13,2 - - 15 8 S 1021,1 13 60 0,0
14.07.2018 11:00:00 21,2 14,1 - - 13 7 SSE 1021,4 10 60 0,0
14.07.2018 10:00:00 20,2 14,3 22,2 18,2 11 6 S 1021,5 10 60 0,0
14.07.2018 09:00:00 19,5 14,2 - - 5 3 - 1021,4 10 60 0,0
14.07.2018 08:00:00 16,5 13,9 - - 5 3 - 1021,5 9 60 0,0
14.07.2018 07:00:00 13,6 12,3 - - 0 0 N 1021,1 8 60 0,0
14.07.2018 06:00:00 11,3 10,5 - - 2 1 NNE 1021,0 6 0 0,0
14.07.2018 05:00:00 11,1 10,2 - - 2 1 NNE 1021,2 4,7 0 0,0
14.07.2018 04:00:00 11,8 10,6 - - 4 2 NNE 1021,5 6 0 0,0
14.07.2018 03:00:00 12,0 10,6 - - 4 2 N 1021,6 9 0 0,0
14.07.2018 02:00:00 13,5 12,2 - - 5 3 NE 1021,6 10 0 0,0
14.07.2018 01:00:00 13,9 12,2 - - 2 1 SW 1021,9 8 - 0,0
14.07.2018 00:00:00 15,6 13,6 - - 4 2 N 1022,0 8 0 0,0
13.07.2018 23:00:00 17,3 13,9 - - 4 2 N 1021,8 10 0 0,0
13.07.2018 22:00:00 18,7 13,7 - - 8 4 WSW 1021,4 10 0 0,0
13.07.2018 21:00:00 20,4 13,6 - - 5 3 W 1020,9 10 48 0,0
13.07.2018 20:00:00 21,1 15,1 - - 8 4 S 1020,9 10 30 0,0
13.07.2018 19:00:00 20,5 14,4 - - 8 4 S 1021,1 10 30 0,0
13.07.2018 18:00:00 21,7 14,4 - - 13 7 S 1021,4 10 60 0,0
13.07.2018 17:00:00 21,1 14,3 - - 15 8 S 1021,6 10 60 0,0
13.07.2018 16:00:00 21,1 14,7 - - 18 10 S 1021,8 10 60 0,0
13.07.2018 15:00:00 21,2 14,3 - - 21 11 S 1022,1 10 60 0,0
13.07.2018 14:00:00 21,7 14,3 - - 18 10 S 1022,1 10 60 0,0
13.07.2018 13:00:00 21,8 14,4 - - 18 10 S 1022,3 10 60 0,0
13.07.2018 12:00:00 21,8 14,5 - - 13 7 S 1022,4 10 60 0,0
13.07.2018 11:00:00 21,1 14,4 - - 9 5 S 1022,4 10 24 0,0
13.07.2018 10:00:00 20,2 14,0 22,2 18,2 8 4 - 1022,3 9 6 0,0
13.07.2018 09:00:00 19,2 14,7 - - 4 2 - 1022,4 8 6 0,0
13.07.2018 08:00:00 17,1 14,4 - - 2 1 NE 1022,3 9 0 0,0
13.07.2018 07:00:00 14,6 13,3 - - 4 2 N 1022,0 9 0 0,0
13.07.2018 06:00:00 13,6 12,3 - - 5 3 N 1021,9 6 0 0,0
13.07.2018 05:00:00 15,1 13,3 - - 2 1 SE 1022,0 8 0 0,0
13.07.2018 04:00:00 14,5 12,4 - - 8 4 NNW 1021,7 7 0 0,0
13.07.2018 03:00:00 16,0 13,3 - - 2 1 NE 1022,0 12 0 0,0
13.07.2018 02:00:00 15,9 13,4 - - 0 0 N 1022,0 12 0 0,0
13.07.2018 01:00:00 16,7 13,5 - - 5 3 SSW 1022,1 9 - 0,0
13.07.2018 00:00:00 16,8 13,2 - - 5 3 W 1022,0 8 0 0,0
12.07.2018 23:00:00 17,6 13,2 - - 9 5 WNW 1022,1 10 0 0,0
12.07.2018 22:00:00 17,8 13,2 - - 8 4 WNW 1021,9 10 0 0,0
12.07.2018 21:00:00 18,5 13,5 - - 5 3 - 1021,6 10 0 0,0
12.07.2018 20:00:00 18,6 14,5 - - 9 5 S 1021,6 10 0 0,0
12.07.2018 19:00:00 19,2 14,8 - - 9 5 S 1021,5 10 0 0,0
12.07.2018 18:00:00 18,7 14,4 - - 13 7 S 1021,4 10 0 0,0
12.07.2018 17:00:00 20,2 13,7 - - 15 8 S 1021,4 10 54 0,0
12.07.2018 16:00:00 21,5 14,1 - - 16 9 S 1021,5 10 60 0,0
12.07.2018 15:00:00 21,8 12,9 - - 18 10 S 1021,5 10 60 0,0
12.07.2018 14:00:00 22,1 12,9 - - 21 11 S 1021,5 10 60 0,0
12.07.2018 13:00:00 22,9 13,1 - - 15 8 S 1021,5 10 60 0,0
12.07.2018 12:00:00 22,3 12,8 - - 13 7 SSW 1021,6 10 60 0,0
12.07.2018 11:00:00 22,2 13,0 - - 9 5 SSE 1021,5 10 54 0,0
12.07.2018 10:00:00 20,5 14,2 22,2 18,2 8 4 - 1021,5 10 48 0,0
12.07.2018 09:00:00 19,5 14,9 - - 4 2 - 1021,5 10 60 0,0

tt = temperature
td = dewpoint
tt -20cm = temperature -20cm
tt -100cm = temperature -100cm
ff = wind speed
dd = wind direction
ppp = reduced air pressure
vv = visibility
sd = sunshine duration
rr = precipitation

Next stations